Погода в Славгороде

Погода в Славгороде : погода сейчас, прогноз погоды и архив. Всё, что Вы хотите узнать о погоде в Славгороде!

Хотите узнать прогноз погоды в Славгороде? Тогда Вам сюда: Погода в Славгороде

Поиск расширенной информации на нашем сайте:

Полезная информация: Самая подробная информация статусы про сук у нас на сайте.

Другие новости

Новости СМИ2

Главная страница сайта

Новости сайта

03.07.2017

Напоминаем, что на нашем специализированном сайте Метеоцентр.Азия вы можете получить высокодетализированные автоматические прогнозы погоды по пунктам России, СНГ и мира в авиационном формате (включающие направление и скорость ветра, видимость, явления погоды, количество и форму облачности, нижнюю и верхнюю границу облачности).

Рекомендуем: гаджет погоды

Погода в Славгороде - сегодня

Время (UTC), дата Ветер
(°,м/с) 
Видим.   Явления Облачность Т
(°С)
Тd
(°С)
f(%) Тe
(°С)
Pmin
(гПа)
dP
(гПа)
Po
(мм)
O2
(г/м3)
Тmin Tmax R s Состояние
почвы
12 18.09.17 230 (ЮЗ) 9-13{17}  20000 м    8/8 1000 м 
[Cu Sc]
+17.6 +8.2 54 +17  1006.1  1.3  740  279           
18 18.09.17 220 (ЮЗ) 7-13{16}  20000 м    9/9 1410 м 
[Sc]
+16.1 +6.2 52 +16  1005.8  -0.6  740  280    +19.8       
00 19.09.17 250 (З) 8-13{20}  20000 м    6/6 1000 м 
[Sc]
+12 +5.6 65 +10  1009.5  2.3  742  285           
03 19.09.17 240 (ЮЗ) 6-11{13}  20000 м    6/6 600 м 
[Sc]
+10.2 +6.9 80 +9  1011.8  2.1  744  288           
06 19.09.17 250 (З) 7-11{11}  20000 м    3/3 1000 м 
[Sc]
+11.2 +7.3 77 +10  1014.5  2.8  746  287  +8.9         
09 19.09.17 260 (З) 5{11}  20000 м    8/1 1000 м верхняя 
[Cu med, cong|Ci sp]
+14.4 +7 61 +14  1016.2  1.9  747  285           
12 19.09.17 240 (ЮЗ) 4{10}  20000 м    9/8 1000 м верхняя 
[Cu med, cong|Ci sp]
+16 +7.7 58 +16  1017.5  1.4  748  283           
15 19.09.17 230 (ЮЗ) 20000 м    8/1 600 м верхняя 
[Sc|Cc]
+15.9 +7.4 57 +16  1018.1  0.6  749  284           
18 19.09.17 180 (Ю) 19000 м    4/4 600 м 
[Sc diur, vesp]
+12.2 +8.5 78 +13  1019.3  0.8  749  287    +17.6       
21 19.09.17 тихо ()   20000 м    9/9 700 м 
[Sc]
+10.7 +8.3 85 +11  1020.3  0.9  750  289           
00 20.09.17 090 (В) 13000 м    3/3 600 м 
[Sc]
+8.2 +7 92 +8  1020.6  0.1  750  292           
03 20.09.17 070 (В) 13000 м    9/3 600 м верхняя 
[Sc|Ci sp]
+8.1 +7 93 +9  1020.5  -0.1  750  292           
06 20.09.17 100 (В) 20000 м    9/4 1000 м средняя, верхняя 
[Sc|Ac cast|Ci sp]
+9.7 +7.5 86 +10  1021  0.6  750  291  +7.2         
09 20.09.17 140 (ЮВ) 20000 м    9/8 600 м средняя 
[Sc|Ac und]
+14.7 +8.9 68 +15  1020.5  -0.1  750  285           
12 20.09.17 130 (ЮВ) 20000 м    9/8 600 м средняя 
[Sc|Ac und]
+15.5 +8.7 64 +15  1020.1  -0.3  750  284           
15 20.09.17 100 (В) 20000 м    9/9 1140 м 
[Sc]
+15.4 +9.1 66 +16  1018.9  -1.2  749  284           
18 20.09.17 100 (В) 20000 м    9/9 1320 м 
[Sc]
+12.8 +8.1 73 +13  1019.6  0.5  749  287    +16.2       
21 20.09.17 070 (В) 20000 м    9/9 600 м 
[Sc]
+11.6 +8.6 82 +11  1019  -0.7  749  288           
00 21.09.17 070 (В) 15000 м    ясно 
+11.3 +9.6 89 +12  1018.3  -0.7  748  288           
03 21.09.17 080 (В) 20000 м    ясно 
+10.8 +9.1 89 +10  1017  -1.3  747  288           
06 21.09.17 330 (СЗ) 14000 м  гроза, ливневой дождь  10/10 400 м кучево-дожд. 
[Cb cap]
+10.8 +9.9 94 +11  1019.1  749  288  +10.7       
12 21.09.17 060 (СВ) 5-10{11}  20000 м  {гроза, ливн. осадки}  8/8 600 м 
[Sc]
+18.8 +10.9 60 +21  1014.2  -1  746  279           
18 21.09.17 090 (В) 5-10{10}  20000 м    4/4 600 м 
[Sc]
+18.6 +12.1 66 +23  1014.5  0.5  746  279    +20.4     
21 21.09.17 090 (В) 4{10}  20000 м    4/4 600 м 
[Sc]
+17.7 +10.6 63 +20  1015.5  0.9  747  281           
00 22.09.17 090 (В) 4{10}  20000 м    ясно 
+15.4 +9.5 68 +16  1017.1  1.4  748  284           
Время (UTC), дата Ветер
(°,м/с) 
Видим.   Явления Облачность Т
(°С)
Тd
(°С)
f(%) Тe
(°С)
Pmin
(гПа)
dP
(гПа)
Po
(мм)
O2
(г/м3)
Тmin Tmax R s Состояние
почвы

Для получения пояснительной информации подведите курсор к названию столбца.

ПОГОДА в Славгороде - архив

Всё, что Вы хотите узнать о погоде в Славгороде - удобно и подробно!

Выберите нужную дату (начиная с 1 января 2015* года) и нажмите кнопку "Найти".
Будут отображены архивные сводки погоды по пункту Славгород, начиная с указанной даты.


Отображать данные в формате CSV (для использования в таблицах Excel)


Внимание! Наш архив погоды предназначен исключительно для личного некоммерческого использования в познавательных целях. Если Вам необходимы официальные справки о состоянии погоды (для производственных, юридических, коммерческих и т.п. целей), обращайтесь в органы Росгидромета.

*Примечание: данная дата относится к архиву по метеостанциям СССР (Россия, СНГ, Балтия).
Архив по метеостанциям Зарубежной Европы и Азии (кроме Китая) хранится 10 дней, по другим регионам земного шара (Китай, Африка, Америка, Австралия, Океания) - 1 день.

Славгород - район местоположения метеостанции


Название, широта, долгота, высота метеостанции:
Славгород 53.4°ш. 31°д. 170 м над ур. моря [Беларусь]

Дополнительная информация

В oтличие oт бoльшинства пoгoдных сайтoв мы публикуем пoдрoбную метеoинфoрмацию в детальнoм прoфессиoнальнoм фoрмате.

Характеристики температуры и влажнoсти вoздуха измеряются на высoте 2 м в тени вдали oт зданий и деревьев.
Скoрoсть ветра измеряется на высoте 10 м (на урoвне рoста челoвека скoрoсть ветра ниже в 1.5-2 раза). Если метеoстанция нахoдится в гoрoде или в лесу, тo скoрoсть ветра занижена на 2-4 м/с пo сравнению с oткрытым местoм. Скoрoсть ветра над акватoриями крупных рек и oзёр, а также на вершинах хoлмoв на 2-5 м/с выше, чем в oбычных услoвиях.
Атмoсфернoе давление в разных тoчках местнoсти мoжет значительнo oтличаться oт давления на метеoстанции, в зависимoсти oт услoвий рельефа (при пoдъёме на 10 м давление пoнижается примернo на 1 мм рт.ст.).